This is the latest recevied weather packets stored in our database for station/object OM1ATS-6. If no packets are shown the sender has not sent any weather packets the latest 1 day(s).
| Time | Temp. | Humidity | Pressure | Rain* | Wind** | Luminosity | Snow |
|---|---|---|---|---|---|---|---|
| 1778094430 | 20° C | 56% | 1008.7 hPa | - | - | - | - |
| 1778093829 | 20° C | 55% | 1008.3 hPa | - | - | - | - |
| 1778092330 | 20.56° C | 54% | 1008.5 hPa | - | - | - | - |
| 1778091430 | 20.56° C | 54% | 1008.4 hPa | - | - | - | - |
| 1778090830 | 21.11° C | 53% | 1008.4 hPa | - | - | - | - |
| 1778090230 | 21.11° C | 53% | 1008.1 hPa | - | - | - | - |
| 1778089930 | 21.11° C | 52% | 1008.1 hPa | - | - | - | - |
| 1778089630 | 21.11° C | 52% | 1008.1 hPa | - | - | - | - |
| 1778088730 | 21.67° C | 50% | 1008.7 hPa | - | - | - | - |
| 1778088130 | 22.22° C | 49% | 1008.7 hPa | - | - | - | - |
| 1778086330 | 22.78° C | 47% | 1009.7 hPa | - | - | - | - |
| 1778085130 | 23.89° C | 45% | 1009.9 hPa | - | - | - | - |
| 1778084830 | 23.89° C | 45% | 1009.9 hPa | - | - | - | - |
| 1778083030 | 24.44° C | 43% | 1010 hPa | - | - | - | - |
| 1778082430 | 24.44° C | 43% | 1010 hPa | - | - | - | - |
| 1778082131 | 24.44° C | 42% | 1010 hPa | - | - | - | - |
| 1778081230 | 25° C | 43% | 1009.6 hPa | - | - | - | - |
| 1778080330 | 24.44° C | 43% | 1009 hPa | - | - | - | - |
| 1778078230 | 24.44° C | 45% | 1009.7 hPa | - | - | - | - |
| 1778077930 | 24.44° C | 44% | 1009.7 hPa | - | - | - | - |
| 1778077630 | 24.44° C | 43% | 1009.7 hPa | - | - | - | - |
| 1778076730 | 25.56° C | 41% | 1009.5 hPa | - | - | - | - |
| 1778076430 | 25° C | 42% | 1009.5 hPa | - | - | - | - |
| 1778076130 | 25° C | 41% | 1009.5 hPa | - | - | - | - |
| 1778075829 | 25° C | 41% | 1009.4 hPa | - | - | - | - |
* Rain since midnight (hover to see other rain measurements)
** Current wind speed in m/s (hover to see current wind gust speed)